Orbital Elements at Epoch 2459000.5 (2020-May-31.0) TDB
Reference: JPL 24 (heliocentric ecliptic J2000)
Element | Value | Uncertainty (1-sigma) | Units |
e | .1903825524118094 | 4.4178e-08 | |
a | 2.158405029396761 | 5.1863e-09 | au |
q | 1.747482370761719 | 9.4949e-08 | au |
i | 2.185211678600122 | 4.0791e-06 | deg |
node | 306.61210091326 | 0.00010367 | deg |
peri | 21.678174542389 | 0.00010402 | deg |
M | 207.4457621715879 | 8.9033e-06 | deg |
tp | 2459491.317025356997 (2021-Oct-03.81702536) | 2.9115e-05 | TDB |
period | 1158.238090555429 3.17 | 4.1746e-06 1.143e-08 | d yr |
n | .3108169235112646 | 1.1203e-09 | deg/d |
Q | 2.569327688031803 | 6.1737e-09 | au |
|
| | Orbit Determination Parameters
Additional Information
|